• In Czech Republic
  • List of Countries
  • For 7 days
  • Water Temperature
  • Satellite Maps
  • Weather Map
  • Weather Widgets
  • user-avatar
    Login

    Hourly Weather Dinagepoor

    Today, 16 August, Thursday

    Time Temperature Precipitation Wind Pressure Humidity
    00:00 +33°C° 0 mm 3 mps 749 mmHg 75%
    01:00 +33°C° 0.1 mm 3 mps 749 mmHg 77%
    02:00 +31°C° 0.1 mm 2 mps 749 mmHg 78%
    03:00 +31°C° 0.1 mm 2 mps 749 mmHg 80%
    04:00 +31°C° 0 mm 2 mps 749 mmHg 81%
    05:00 +31°C° 0 mm 2 mps 749 mmHg 82%
    06:00 +30°C° 0 mm 3 mps 749 mmHg 83%
    07:00 +32°C° 0 mm 4 mps 749 mmHg 79%
    08:00 +33°C° 0 mm 4 mps 749 mmHg 75%
    09:00 +34°C° 0 mm 5 mps 749 mmHg 70%
    10:00 +35°C° 0 mm 5 mps 749 mmHg 66%
    11:00 +36°C° 0 mm 5 mps 749 mmHg 61%
    12:00 +36°C° 0 mm 4 mps 749 mmHg 59%
    13:00 +37°C° 0 mm 4 mps 748 mmHg 57%
    14:00 +37°C° 0 mm 4 mps 748 mmHg 56%
    15:00 +37°C° 0 mm 3 mps 747 mmHg 54%
    16:00 +37°C° 0 mm 3 mps 747 mmHg 56%
    17:00 +37°C° 0 mm 3 mps 747 mmHg 58%
    18:00 +36°C° 0 mm 2 mps 747 mmHg 60%
    19:00 +36°C° 0.2 mm 2 mps 747 mmHg 63%
    20:00 +35°C° 0.2 mm 2 mps 747 mmHg 66%
    21:00 +34°C° 0.2 mm 2 mps 748 mmHg 69%
    22:00 +34°C° 0.4 mm 2 mps 748 mmHg 72%
    23:00 +32°C° 0.4 mm 2 mps 748 mmHg 74%

    Tomorrow, 17 August, Friday

    Time Temperature Precipitation Wind Pressure Humidity
    00:00 +32°C° 0.4 mm 2 mps 748 mmHg 77%
    01:00 +31°C° 0.1 mm 2 mps 748 mmHg 79%
    02:00 +31°C° 0.1 mm 2 mps 748 mmHg 81%
    03:00 +31°C° 0.1 mm 2 mps 747 mmHg 82%
    04:00 +30°C° 0 mm 2 mps 747 mmHg 84%
    05:00 +30°C° 0 mm 1 mps 747 mmHg 85%
    06:00 +30°C° 0 mm 1 mps 747 mmHg 86%
    07:00 +31°C° 0 mm 1 mps 747 mmHg 80%
    08:00 +32°C° 0 mm 2 mps 748 mmHg 74%
    09:00 +34°C° 0 mm 2 mps 748 mmHg 68%
    10:00 +35°C° 0 mm 2 mps 747 mmHg 63%
    11:00 +36°C° 0 mm 3 mps 747 mmHg 58%
    12:00 +38°C° 0 mm 3 mps 747 mmHg 52%
    13:00 +38°C° 0 mm 3 mps 746 mmHg 50%
    14:00 +39°C° 0 mm 3 mps 745 mmHg 48%
    15:00 +39°C° 0 mm 2 mps 744 mmHg 46%
    16:00 +39°C° 0 mm 2 mps 744 mmHg 48%
    17:00 +38°C° 0 mm 2 mps 744 mmHg 51%
    18:00 +38°C° 0 mm 2 mps 744 mmHg 53%
    19:00 +37°C° 0 mm 2 mps 744 mmHg 56%
    20:00 +35°C° 0 mm 1 mps 745 mmHg 58%
    21:00 +35°C° 0 mm 1 mps 745 mmHg 61%
    22:00 +34°C° 0 mm 1 mps 746 mmHg 63%
    23:00 +34°C° 0 mm 1 mps 746 mmHg 65%

    Day after tomorrow, 18 August, Saturday

    Time Temperature Precipitation Wind Pressure Humidity
    00:00 +34°C° 0 mm 1 mps 746 mmHg 67%
    01:00 +33°C° 0.5 mm 1 mps 746 mmHg 70%
    02:00 +33°C° 0.5 mm 1 mps 745 mmHg 72%
    03:00 +32°C° 0.5 mm 1 mps 745 mmHg 74%
    04:00 +32°C° 0 mm 1 mps 745 mmHg 75%
    05:00 +32°C° 0 mm 1 mps 745 mmHg 76%
    06:00 +32°C° 0 mm 1 mps 745 mmHg 78%
    07:00 +33°C° 0 mm 1 mps 745 mmHg 72%
    08:00 +34°C° 0 mm 1 mps 746 mmHg 67%
    09:00 +35°C° 0 mm 1 mps 746 mmHg 61%
    10:00 +37°C° 0 mm 1 mps 746 mmHg 56%
    11:00 +39°C° 0 mm 1 mps 745 mmHg 52%
    12:00 +40°C° 0 mm 1 mps 745 mmHg 47%
    13:00 +40°C° 0 mm 1 mps 744 mmHg 46%
    14:00 +40°C° 0 mm 1 mps 743 mmHg 45%
    15:00 +40°C° 0 mm 1 mps 742 mmHg 45%
    16:00 +40°C° 0 mm 1 mps 742 mmHg 46%
    17:00 +40°C° 0 mm 1 mps 742 mmHg 47%
    18:00 +40°C° 0 mm 1 mps 742 mmHg 48%
    19:00 +39°C° 0 mm 1 mps 743 mmHg 51%
    20:00 +37°C° 0 mm 1 mps 744 mmHg 53%
    21:00 +36°C° 0 mm 1 mps 744 mmHg 55%
    22:00 +36°C° 0 mm 1 mps 744 mmHg 57%
    23:00 +36°C° 0 mm 1 mps 744 mmHg 59%

    19 August, Sunday

    Time Temperature Precipitation Wind Pressure Humidity
    00:00 +35°C° 0 mm 1 mps 744 mmHg 60%
    01:00 +35°C° 0 mm 1 mps 744 mmHg 62%
    02:00 +34°C° 0 mm 1 mps 744 mmHg 63%
    03:00 +34°C° 0 mm 1 mps 743 mmHg 64%
    04:00 +34°C° 0 mm 1 mps 743 mmHg 66%
    05:00 +34°C° 0 mm 1 mps 743 mmHg 68%
    06:00 +33°C° 0 mm 1 mps 743 mmHg 69%
    07:00 +35°C° 0 mm 1 mps 744 mmHg 64%
    08:00 +36°C° 0 mm 1 mps 744 mmHg 59%
    09:00 +39°C° 0 mm 2 mps 745 mmHg 53%
    10:00 +40°C° 0 mm 2 mps 744 mmHg 49%
    11:00 +41°C° 0 mm 2 mps 744 mmHg 45%
    12:00 +43°C° 0 mm 3 mps 744 mmHg 41%
    13:00 +43°C° 0 mm 3 mps 743 mmHg 41%
    14:00 +43°C° 0 mm 3 mps 743 mmHg 40%
    15:00 +42°C° 0 mm 2 mps 742 mmHg 40%
    16:00 +42°C° 0 mm 2 mps 742 mmHg 43%
    17:00 +41°C° 0 mm 2 mps 742 mmHg 46%
    18:00 +40°C° 0 mm 1 mps 743 mmHg 48%
    19:00 +39°C° 0 mm 2 mps 743 mmHg 52%
    20:00 +38°C° 0 mm 3 mps 744 mmHg 56%
    21:00 +37°C° 0 mm 4 mps 745 mmHg 60%
    22:00 +36°C° 0.2 mm 4 mps 745 mmHg 63%
    23:00 +35°C° 0.2 mm 4 mps 745 mmHg 67%

    20 August, Monday

    Time Temperature Precipitation Wind Pressure Humidity
    00:00 +34°C° 0.2 mm 5 mps 746 mmHg 70%
    01:00 +34°C° 0.1 mm 5 mps 746 mmHg 71%
    02:00 +33°C° 0.1 mm 4 mps 746 mmHg 73%
    03:00 +33°C° 0.1 mm 4 mps 745 mmHg 74%
    04:00 +32°C° 0.2 mm 4 mps 746 mmHg 75%
    05:00 +32°C° 0.2 mm 4 mps 747 mmHg 77%
    06:00 +32°C° 0.2 mm 4 mps 747 mmHg 78%
    07:00 +32°C° 1.9 mm 4 mps 748 mmHg 78%
    08:00 +32°C° 1.9 mm 5 mps 748 mmHg 77%
    09:00 +32°C° 1.9 mm 5 mps 749 mmHg 77%
    10:00 +34°C° 2.2 mm 5 mps 749 mmHg 72%
    11:00 +35°C° 2.2 mm 5 mps 749 mmHg 67%
    12:00 +36°C° 2.2 mm 5 mps 748 mmHg 62%
    13:00 +36°C° 1.6 mm 5 mps 748 mmHg 61%
    14:00 +37°C° 1.6 mm 5 mps 747 mmHg 60%
    15:00 +37°C° 1.6 mm 5 mps 746 mmHg 58%
    16:00 +36°C° 1.2 mm 4 mps 746 mmHg 61%
    17:00 +36°C° 1.2 mm 4 mps 746 mmHg 64%
    18:00 +35°C° 1.2 mm 3 mps 746 mmHg 67%
    19:00 +34°C° 0.9 mm 3 mps 747 mmHg 70%
    20:00 +34°C° 0.9 mm 3 mps 747 mmHg 74%
    21:00 +33°C° 0.9 mm 3 mps 748 mmHg 77%
    22:00 +31°C° 1.1 mm 3 mps 748 mmHg 79%
    23:00 +31°C° 1.1 mm 3 mps 748 mmHg 80%

    21 August, Tuesday

    Time Temperature Precipitation Wind Pressure Humidity
    00:00 +30°C° 1.1 mm 3 mps 748 mmHg 82%
    01:00 +30°C° 0.3 mm 3 mps 748 mmHg 83%
    02:00 +30°C° 0.3 mm 3 mps 747 mmHg 84%
    03:00 +30°C° 0.3 mm 2 mps 747 mmHg 85%
    04:00 +30°C° 0.2 mm 2 mps 747 mmHg 86%
    05:00 +30°C° 0.2 mm 2 mps 747 mmHg 86%
    06:00 +29°C° 0.2 mm 3 mps 748 mmHg 87%
    07:00 +30°C° 0.1 mm 3 mps 748 mmHg 82%
    08:00 +31°C° 0.1 mm 3 mps 748 mmHg 77%
    09:00 +33°C° 0.1 mm 4 mps 749 mmHg 72%
    10:00 +34°C° 0 mm 4 mps 749 mmHg 68%
    11:00 +35°C° 0 mm 4 mps 748 mmHg 64%
    12:00 +36°C° 0 mm 4 mps 748 mmHg 60%
    13:00 +36°C° 0 mm 4 mps 747 mmHg 58%
    14:00 +37°C° 0 mm 4 mps 746 mmHg 57%
    15:00 +37°C° 0 mm 4 mps 746 mmHg 56%
    16:00 +37°C° 0 mm 3 mps 745 mmHg 58%
    17:00 +36°C° 0 mm 3 mps 745 mmHg 60%
    18:00 +36°C° 0 mm 3 mps 745 mmHg 62%
    19:00 +35°C° 0 mm 2 mps 746 mmHg 65%
    20:00 +34°C° 0 mm 2 mps 746 mmHg 67%
    21:00 +34°C° 0 mm 2 mps 747 mmHg 70%
    22:00 +32°C° 0.2 mm 2 mps 747 mmHg 72%
    23:00 +32°C° 0.2 mm 2 mps 747 mmHg 74%
    Show more